Powrót do katalogu

CZ-6A DEB

AktywnySSO
NORAD 56587·DEBRIS·🇨🇳 China

Wystrzelony Nov 11, 2022 z Taiyuan Satellite Launch Center

Loading…

Następne Przeloty (najbliższe 24 godziny)

TLE

ŚwieżeSource: Space-Track

Epoka: Sep 12, 2026, 08:24 UTC

1 56587U 22151ADK 26255.35034805  .00000727  00000-0  54301-3 0  9992
2 56587  98.9440 215.8969 0165586 253.9454 104.3417 13.91701010171697

Śledź CZ-6A DEB w czasie rzeczywistym z AllMySat

Download on the App Store